User: anonymous   Login
Location: Unspecified
(0.0000°N, 0.0000°E)
Time: 19:13:19
(UTC+00:00)
Language:

P83-1 Hilat - Orbit

View from above orbital plane
View from above orbital plane
View from above satellite
View from above satellite

Ground track
Ground track

The orbit data is extracted from the following two-line orbital elements,

1 14154U 83063A   19340.93368958 +.00000083 +00000-0 +22821-4 0  9993
2 14154 082.0258 212.2920 0039650 301.5937 068.7744 14.36428031905115
Epoch (UTC): 06 December 2019 22:24:30
Eccentricity: 0.0039650
inclination: 82.0258°
perigee height: 742 km
apogee height: 798 km
right ascension of ascending node: 212.2920°
argument of perigee: 301.5937°
revolutions per day: 14.36428031
mean anomaly at epoch: 68.7744°
orbit number at epoch: 90511

The dashed part of the orbit path shows where the satellite is in the earth's shadow,  

DLR